CW1439 Weather Reports


Display with metric or nautical units.
time (UTC)temp
F
wind
direction
speed
MPH
gust
MPH
rain 1hr
in
rain 24hr
in
rain mn
in
humidity
%
barometer
mb
20260509223342 64 236 0.0 5.0 0.00 0.22 0.22 73 1008.7
20260509222839 63 232 3.0 5.0 0.00 0.22 0.22 72 1008.7
20260509222358 63 255 1.0 5.0 0.00 0.22 0.22 73 1008.6
20260509221854 63 214 2.0 5.0 0.00 0.22 0.22 71 1008.7
20260509221351 64 234 1.0 4.0 0.00 0.22 0.22 73 1008.6
20260509220852 63 200 1.0 5.0 0.00 0.22 0.22 73 1008.6
20260509220351 63 228 2.0 5.0 0.00 0.22 0.22 73 1008.6
20260509215846 63 245 3.0 6.0 0.00 0.22 0.22 72 1008.7
20260509215345 63 245 2.0 6.0 0.00 0.22 0.22 73 1008.8
20260509214900 63 239 2.0 5.0 0.00 0.22 0.22 73 1008.9
20260509214355 63 260 0.0 5.0 0.00 0.22 0.22 76 1008.9
20260509213852 62 281 1.0 5.0 0.00 0.22 0.22 75 1008.9
20260509213351 62 217 0.0 4.0 0.00 0.22 0.22 78 1008.9
20260509212848 62 250 0.0 4.0 0.00 0.22 0.22 79 1009.0
20260509212346 61 262 1.0 2.0 0.00 0.22 0.22 82 1009.0
20260509211904 60 250 0.0 3.0 0.00 0.22 0.22 87 1009.0
20260509211400 59 252 1.0 3.0 0.00 0.22 0.22 86 1009.2
20260509210855 58 264 0.0 1.0 0.00 0.22 0.22 90 1009.3
20260509210351 58 265 0.0 2.0 0.00 0.22 0.22 89 1009.4
20260509205847 57 265 1.0 2.0 0.00 0.22 0.22 89 1009.5
20260509205345 57 274 0.0 0.0 0.00 0.22 0.22 92 1009.4
20260509204842 56 274 0.0 0.0 0.00 0.22 0.22 92 1009.4
20260509204339 56 266 0.0 0.0 0.00 0.22 0.22 93 1009.4
20260509203854 56 141 0.0 0.0 0.00 0.22 0.22 95 1009.4
20260509203337 56 141 0.0 0.0 0.00 0.22 0.22 96 1009.4
20260509202910 56 141 0.0 0.0 0.00 0.22 0.22 95 1009.3
20260509202350 56 141 0.0 0.0 0.00 0.22 0.22 95 1009.3
20260509201849 56 141 0.0 0.0 0.00 0.22 0.22 96 1009.4
20260509201347 56 141 0.0 1.0 0.00 0.22 0.22 95 1009.5
20260509200845 56 141 0.0 1.0 0.00 0.22 0.22 93 1009.5
20260509200340 56 288 0.0 1.0 0.00 0.22 0.22 91 1009.6
20260509195837 57 288 0.0 3.0 0.00 0.22 0.22 92 1009.7
20260509195354 57 288 1.0 3.0 0.00 0.22 0.22 91 1009.8
20260509194852 57 277 0.0 3.0 0.00 0.22 0.22 91 1009.8
20260509194349 57 253 0.0 2.0 0.00 0.22 0.22 93 1009.9
20260509193847 57 269 1.0 6.0 0.00 0.22 0.22 94 1009.9
20260509193404 56 262 0.0 6.0 0.00 0.22 0.22 95 1009.9
20260509192841 55 278 3.0 5.0 0.00 0.22 0.22 96 1010.0
20260509192357 55 307 2.0 5.0 0.00 0.22 0.22 97 1010.1
20260509191836 55 245 1.0 3.0 0.00 0.22 0.22 98 1010.2
20260509191353 55 278 1.0 4.0 0.00 0.22 0.22 98 1010.2
20260509190911 54 255 2.0 4.0 0.00 0.22 0.22 98 1010.5
20260509190347 55 228 1.0 4.0 0.00 0.22 0.22 98 1010.4
20260509185846 55 248 0.0 3.0 0.00 0.22 0.22 98 1010.4
20260509185343 55 245 2.0 4.0 0.00 0.22 0.22 98 1010.5
20260509184843 55 260 0.0 4.0 0.00 0.22 0.22 99 1010.4
20260509184341 54 86 0.0 3.0 0.00 0.22 0.22 99 1010.3
20260509183839 54 288 0.0 4.0 0.00 0.22 0.22 99 1010.3
20260509183355 54 141 1.0 4.0 0.00 0.22 0.22 99 1010.4
20260509182852 53 293 1.0 2.0 0.01 0.22 0.22 98 1010.4
20260509182348 53 248 0.0 1.0 0.01 0.22 0.22 98 1010.6
20260509181846 53 248 0.0 1.0 0.01 0.22 0.22 98 1010.6
20260509181343 53 247 0.0 1.0 0.01 0.22 0.22 98 1010.7
20260509180841 53 248 0.0 1.0 0.01 0.22 0.22 98 1010.7
20260509180337 53 247 0.0 1.0 0.01 0.22 0.22 98 1011.0
20260509175854 52 248 0.0 2.0 0.01 0.22 0.22 98 1010.9
20260509175409 52 248 0.0 2.0 0.01 0.22 0.22 98 1010.9
20260509174847 52 248 0.0 3.0 0.02 0.22 0.22 98 1010.8
20260509174346 52 248 0.0 3.0 0.02 0.22 0.22 98 1010.7
20260509173843 52 248 0.0 1.0 0.03 0.22 0.22 98 1010.8
20260509173339 52 247 0.0 2.0 0.03 0.22 0.22 98 1010.8
20260509172838 52 248 0.0 3.0 0.03 0.21 0.21 98 1011.0
20260509172337 52 248 0.0 3.0 0.04 0.21 0.21 98 1011.0
20260509171854 52 248 1.0 2.0 0.04 0.21 0.21 98 1011.0
20260509171351 52 248 0.0 1.0 0.05 0.21 0.21 98 1010.9
20260509170847 52 248 0.0 1.0 0.06 0.21 0.21 98 1010.9
20260509170344 51 248 0.0 0.0 0.07 0.21 0.21 98 1010.8
20260509165841 51 248 0.0 1.0 0.08 0.21 0.21 98 1010.8
20260509165337 51 248 0.0 1.0 0.10 0.21 0.21 98 1010.9
20260509164853 51 248 0.0 2.0 0.11 0.20 0.20 97 1010.7
20260509164351 50 248 0.0 2.0 0.12 0.20 0.20 97 1010.8
20260509163847 51 249 0.0 1.0 0.12 0.19 0.19 97 1010.7
20260509163344 51 249 0.0 1.0 0.13 0.19 0.19 97 1010.7
20260509162916 51 249 0.0 1.0 0.13 0.18 0.18 97 1010.6
20260509162352 51 249 0.0 1.0 0.13 0.18 0.18 97 1010.7
20260509161849 51 249 0.0 1.0 0.12 0.17 0.17 97 1010.7
20260509161345 51 249 0.0 1.0 0.12 0.16 0.16 96 1010.9
20260509160842 52 249 0.0 1.0 0.11 0.15 0.15 96 1011.0
20260509160338 52 249 0.0 1.0 0.11 0.14 0.14 96 1011.5
20260509155851 52 249 0.0 1.0 0.10 0.13 0.13 95 1011.6
20260509155352 52 249 0.0 2.0 0.09 0.11 0.11 95 1011.8
20260509154849 53 249 0.0 2.0 0.08 0.09 0.09 93 1011.8
20260509154347 53 254 0.0 1.0 0.07 0.08 0.08 93 1011.9
20260509153843 53 255 0.0 3.0 0.07 0.07 0.07 93 1011.8
20260509153341 54 225 0.0 3.0 0.06 0.06 0.06 93 1011.8
20260509152914 54 249 1.0 3.0 0.05 0.05 0.05 93 1011.8
20260509152351 54 249 0.0 3.0 0.05 0.05 0.05 94 1011.7
20260509151907 54 253 1.0 3.0 0.05 0.05 0.05 93 1011.6
20260509151343 54 269 0.0 1.0 0.04 0.04 0.04 94 1011.6
20260509150842 54 269 0.0 3.0 0.04 0.04 0.04 94 1011.6
20260509150338 54 269 1.0 3.0 0.03 0.03 0.03 94 1011.7
20260509145852 54 26 0.0 1.0 0.03 0.03 0.03 92 1011.7
20260509145348 54 26 0.0 1.0 0.02 0.02 0.02 92 1011.7
20260509144904 54 26 0.0 1.0 0.01 0.01 0.01 92 1011.5
20260509144340 54 26 0.0 1.0 0.01 0.01 0.01 91 1011.4
20260509143837 54 26 0.0 1.0 0.00 0.00 0.00 91 1011.4
20260509143353 54 26 0.0 1.0 0.00 0.00 0.00 91 1011.3
20260509142849 54 26 0.0 0.0 0.00 0.00 0.00 92 1011.4
20260509142346 53 26 0.0 0.0 0.00 0.00 0.00 91 1011.3
20260509141849 53 26 0.0 0.0 0.00 0.00 0.00 92 1011.3
20260509141347 53 26 0.0 0.0 0.00 0.00 0.00 92 1011.2
20260509140844 53 26 0.0 0.0 0.00 0.00 0.00 92 1011.2
20260509140400 53 26 0.0 0.0 0.00 0.00 0.00 92 1011.2
20260509135853 53 26 0.0 1.0 0.00 0.00 0.00 92 1011.1
20260509135351 53 26 0.0 1.0 0.00 0.00 0.00 91 1011.0
20260509134848 53 26 0.0 1.0 0.00 0.00 0.00 92 1011.1
20260509134405 53 26 0.0 1.0 0.00 0.00 0.00 93 1011.0
20260509133843 53 26 0.0 1.0 0.00 0.00 0.00 92 1010.9
20260509133340 52 26 0.0 1.0 0.00 0.00 0.00 92 1011.1
20260509132835 52 27 0.0 1.0 0.00 0.00 0.00 91 1011.1
20260509132413 52 27 0.0 1.0 0.00 0.00 0.00 91 1010.9
20260509131909 52 27 0.0 1.0 0.00 0.00 0.00 91 1010.7
20260509131343 52 27 0.0 1.0 0.00 0.00 0.00 90 1010.7
20260509130841 52 27 0.0 1.0 0.00 0.00 0.00 89 1010.9
20260509130338 52 26 0.0 1.0 0.00 0.00 0.00 89 1010.9
20260509125852 52 26 0.0 1.0 0.00 0.00 0.00 90 1010.8
20260509125348 52 26 0.0 1.0 0.00 0.00 0.00 88 1011.0
20260509124845 52 26 0.0 0.0 0.00 0.00 0.00 89 1011.1
20260509124402 52 26 0.0 1.0 0.00 0.00 0.00 89 1011.1
20260509123838 52 26 0.0 1.0 0.00 0.00 0.00 88 1011.1
20260509123351 52 27 0.0 1.0 0.00 0.00 0.00 88 1011.0
20260509122849 52 27 0.0 1.0 0.00 0.00 0.00 88 1010.7
20260509122347 51 27 0.0 1.0 0.00 0.00 0.00 88 1010.7
20260509121843 51 27 0.0 1.0 0.00 0.00 0.00 88 1010.7
20260509121340 51 43 0.0 4.0 0.00 0.00 0.00 88 1010.7
20260509120839 51 43 0.0 4.0 0.00 0.00 0.00 88 1010.7
20260509120336 51 127 0.0 3.0 0.00 0.00 0.00 88 1010.8
20260509115849 51 75 0.0 2.0 0.00 0.00 0.00 88 1010.5
20260509115348 51 75 0.0 2.0 0.00 0.00 0.00 88 1010.6
20260509114845 51 75 0.0 2.0 0.00 0.00 0.00 88 1010.5
20260509114342 51 19 1.0 2.0 0.00 0.00 0.00 88 1010.6
20260509113840 51 65 0.0 1.0 0.00 0.00 0.00 88 1010.6
20260509113337 50 65 0.0 1.0 0.00 0.00 0.00 88 1010.5
20260509112851 51 65 0.0 1.0 0.00 0.00 0.00 88 1010.6
20260509112348 51 65 0.0 1.0 0.00 0.00 0.00 88 1010.5
20260509111845 50 65 0.0 0.0 0.00 0.00 0.00 87 1010.5
20260509111342 50 65 0.0 0.0 0.00 0.00 0.00 87 1010.5
20260509110845 50 65 0.0 0.0 0.00 0.00 0.00 87 1010.6
20260509110342 50 65 0.0 0.0 0.00 0.00 0.00 88 1010.7
20260509105855 50 65 0.0 2.0 0.00 0.00 0.00 87 1010.5
20260509105352 50 65 0.0 2.0 0.00 0.00 0.00 87 1010.5
20260509104910 50 65 0.0 0.0 0.00 0.00 0.00 88 1010.4
20260509104348 50 65 0.0 0.0 0.00 0.00 0.00 88 1010.5
20260509103905 50 65 0.0 0.0 0.00 0.00 0.00 87 1010.4
20260509103341 50 65 0.0 0.0 0.00 0.00 0.00 87 1010.3
20260509102852 50 65 0.0 1.0 0.00 0.00 0.00 87 1010.4
20260509102411 49 65 0.0 1.0 0.00 0.00 0.00 87 1010.2
20260509101845 49 65 0.0 2.0 0.00 0.00 0.00 87 1010.0
20260509101341 49 65 0.0 3.0 0.00 0.00 0.00 89 1009.9
20260509100839 49 44 0.0 3.0 0.00 0.00 0.00 90 1009.9
20260509100335 49 44 0.0 0.0 0.00 0.00 0.00 90 1010.0
20260509095851 49 44 0.0 0.0 0.00 0.00 0.00 89 1010.1
20260509095347 49 44 0.0 0.0 0.00 0.00 0.00 89 1010.2
20260509094904 49 44 0.0 0.0 0.00 0.00 0.00 89 1010.3
20260509094340 49 44 0.0 0.0 0.00 0.00 0.00 89 1010.2
20260509093836 49 44 0.0 0.0 0.00 0.00 0.00 89 1010.3
20260509093355 49 44 0.0 1.0 0.00 0.00 0.00 89 1010.2
20260509092909 49 44 0.0 1.0 0.00 0.00 0.00 89 1010.1
20260509092345 49 44 0.0 1.0 0.00 0.00 0.00 89 1010.1
20260509091846 49 44 0.0 1.0 0.00 0.00 0.00 89 1010.2
20260509091342 49 44 0.0 0.0 0.00 0.00 0.00 89 1010.3
20260509090840 49 44 0.0 0.0 0.00 0.00 0.00 89 1010.4
20260509090336 49 44 0.0 0.0 0.00 0.00 0.00 88 1010.3
20260509085851 49 44 0.0 1.0 0.00 0.00 0.00 88 1010.4
20260509085348 50 44 0.0 1.0 0.00 0.00 0.00 87 1010.4
20260509084846 50 44 0.0 0.0 0.00 0.00 0.00 86 1010.4
20260509084341 50 44 0.0 0.0 0.00 0.00 0.00 85 1010.4
20260509083839 50 44 0.0 0.0 0.00 0.00 0.00 84 1010.6
20260509083355 50 44 0.0 0.0 0.00 0.00 0.00 83 1010.5
20260509082847 51 44 0.0 2.0 0.00 0.00 0.00 83 1010.5
20260509082343 50 44 0.0 2.0 0.00 0.00 0.00 83 1010.4
20260509081840 51 44 0.0 2.0 0.00 0.00 0.00 83 1010.6
20260509081336 50 33 0.0 1.0 0.00 0.00 0.00 83 1010.7
20260509080912 50 33 0.0 1.0 0.00 0.00 0.00 85 1010.7
20260509080349 50 33 0.0 3.0 0.00 0.00 0.00 85 1010.7
20260509075846 50 41 1.0 3.0 0.00 0.00 0.00 85 1010.7
20260509075343 50 18 0.0 2.0 0.00 0.00 0.00 85 1010.7
20260509074842 50 18 0.0 2.0 0.00 0.00 0.00 85 1010.7
20260509074340 49 19 0.0 1.0 0.00 0.00 0.00 85 1010.8
20260509073837 49 19 0.0 1.0 0.00 0.00 0.00 84 1010.9
20260509073354 50 19 0.0 0.0 0.00 0.00 0.00 83 1011.0
20260509072849 50 19 0.0 1.0 0.00 0.00 0.00 81 1010.9
20260509072345 50 19 0.0 3.0 0.00 0.00 0.00 80 1010.9
20260509071842 50 20 0.0 2.0 0.00 0.00 0.00 81 1010.9
20260509071338 50 13 1.0 2.0 0.00 0.00 0.00 81 1011.0
20260509070855 50 13 0.0 0.0 0.00 0.00 0.00 81 1010.9
20260509070351 51 13 0.0 0.0 0.00 0.00 0.00 80 1010.9
20260509065845 51 13 0.0 1.0 0.00 0.00 0.00 80 1010.9
20260509065342 51 13 0.0 1.0 0.00 0.00 0.00 80 1011.0
20260509064840 52 13 0.0 1.0 0.00 0.00 0.00 80 1010.9
20260509064336 52 13 0.0 3.0 0.00 0.00 0.00 79 1011.0
20260509063853 52 13 0.0 5.0 0.00 0.00 0.00 79 1011.0
20260509063410 52 72 1.0 5.0 0.00 0.00 0.00 78 1010.9
20260509062901 52 81 1.0 5.0 0.00 0.00 0.00 79 1011.0
20260509062339 52 74 0.0 7.0 0.00 0.00 0.00 79 1011.1
20260509061841 52 75 4.0 7.0 0.00 0.00 0.00 81 1011.1
20260509061340 52 33 1.0 4.0 0.00 0.00 0.00 83 1011.3
20260509060836 52 56 2.0 4.0 0.00 0.00 0.00 83 1011.3
20260509060353 52 51 0.0 1.0 0.00 0.00 0.00 83 1011.4
20260509055848 52 51 0.0 1.0 0.00 0.00 0.00 82 1011.4
20260509055345 52 51 0.0 2.0 0.00 0.00 0.00 81 1011.5
20260509054902 52 51 0.0 2.0 0.00 0.00 0.00 80 1011.5
20260509054337 53 58 0.0 3.0 0.00 0.00 0.00 79 1011.4
20260509053854 53 58 0.0 3.0 0.00 0.00 0.00 77 1011.5
20260509053350 53 60 0.0 2.0 0.00 0.00 0.00 76 1011.4
20260509052847 53 60 0.0 2.0 0.00 0.00 0.00 76 1011.6
20260509052346 53 60 0.0 5.0 0.00 0.00 0.00 75 1011.6
20260509051842 53 75 1.0 5.0 0.00 0.00 0.00 75 1011.7
20260509051339 53 53 1.0 6.0 0.00 0.00 0.00 75 1011.7
20260509050916 53 84 2.0 6.0 0.00 0.00 0.00 75 1011.7
20260509050350 53 63 2.0 4.0 0.00 0.00 0.00 75 1011.7
20260509045904 53 40 1.0 6.0 0.00 0.00 0.00 75 1011.6
20260509045339 53 61 3.0 6.0 0.00 0.00 0.00 75 1011.5
20260509044855 53 78 1.0 4.0 0.00 0.00 0.00 76 1011.6
20260509044353 53 96 1.0 4.0 0.00 0.00 0.00 76 1011.5
20260509043851 53 8 1.0 4.0 0.00 0.00 0.00 76 1011.6
20260509043408 53 70 1.0 4.0 0.00 0.00 0.00 76 1011.6
20260509042845 53 63 2.0 4.0 0.00 0.00 0.00 76 1011.6
20260509042342 53 358 0.0 1.0 0.00 0.00 0.00 77 1011.6
20260509041839 53 350 0.0 1.0 0.00 0.00 0.00 78 1011.8
20260509041355 54 349 0.0 2.0 0.00 0.00 0.00 76 1011.8
20260509040851 54 350 1.0 2.0 0.00 0.00 0.00 76 1011.9
20260509040348 54 291 0.0 1.0 0.00 0.00 0.00 73 1011.9
20260509035839 54 293 0.0 1.0 0.00 0.00 0.00 74 1012.1
20260509035355 54 57 0.0 2.0 0.00 0.00 0.00 73 1012.0
20260509034852 53 57 0.0 2.0 0.00 0.00 0.00 73 1011.9
20260509034351 53 257 0.0 1.0 0.00 0.00 0.00 75 1011.8
20260509033847 53 257 0.0 1.0 0.00 0.00 0.00 74 1012.0
20260509033405 53 257 0.0 0.0 0.00 0.00 0.00 74 1012.2
20260509032841 53 257 0.0 0.0 0.00 0.00 0.00 74 1012.2
20260509032358 53 257 0.0 1.0 0.00 0.00 0.00 74 1012.3
20260509031854 53 257 0.0 1.0 0.00 0.00 0.00 75 1012.4
20260509031350 53 257 0.0 3.0 0.00 0.00 0.00 77 1012.5
20260509030847 53 257 0.0 4.0 0.00 0.00 0.00 77 1012.4
20260509030344 54 248 2.0 4.0 0.00 0.00 0.00 74 1012.3
20260509025837 53 143 0.0 1.0 0.00 0.00 0.00 78 1011.7
20260509025339 53 236 0.0 1.0 0.00 0.00 0.00 79 1011.5
20260509024836 54 236 0.0 1.0 0.00 0.00 0.00 77 1011.6
20260509024413 55 236 0.0 1.0 0.00 0.00 0.00 76 1011.7
20260509023848 55 235 0.0 1.0 0.00 0.00 0.00 69 1011.6
20260509023345 55 235 0.0 1.0 0.00 0.00 0.00 68 1011.7
20260509022839 55 236 0.0 0.0 0.00 0.00 0.00 68 1011.8
20260509022414 55 236 0.0 1.0 0.00 0.00 0.00 68 1011.6
20260509021850 55 236 0.0 1.0 0.00 0.00 0.00 68 1011.6
20260509021347 55 237 0.0 1.0 0.00 0.00 0.00 68 1011.7
20260509020902 55 236 0.0 0.0 0.00 0.00 0.00 69 1011.8
20260509020341 55 236 0.0 0.0 0.00 0.00 0.00 68 1011.8
20260509015836 55 236 0.0 1.0 0.00 0.00 0.00 68 1011.9
20260509015413 55 237 0.0 1.0 0.00 0.00 0.00 66 1011.9
20260509014908 55 278 0.0 1.0 0.00 0.00 0.00 67 1011.9
20260509014344 55 280 0.0 0.0 0.00 0.00 0.00 67 1011.8
20260509013901 55 276 0.0 0.0 0.00 0.00 0.00 66 1011.7
20260509013336 56 269 0.0 1.0 0.00 0.00 0.00 66 1011.7
20260509012850 56 269 0.0 1.0 0.00 0.00 0.00 66 1011.7
20260509012348 56 269 0.0 0.0 0.00 0.00 0.00 65 1011.7
20260509011846 56 269 0.0 0.0 0.00 0.00 0.00 65 1011.6
20260509011341 56 269 0.0 0.0 0.00 0.00 0.00 64 1011.5
20260509010858 56 269 0.0 0.0 0.00 0.00 0.00 64 1011.5
20260509010415 56 270 0.0 0.0 0.00 0.00 0.00 63 1011.4
20260509005850 56 270 0.0 1.0 0.00 0.00 0.00 63 1011.5
20260509005348 56 269 0.0 1.0 0.00 0.00 0.00 63 1011.5
20260509004843 56 266 0.0 1.0 0.00 0.00 0.00 63 1011.4
20260509004344 56 262 0.0 1.0 0.00 0.00 0.00 63 1011.4
20260509003840 56 264 0.0 1.0 0.00 0.00 0.00 64 1011.3
20260509003416 56 245 0.0 1.0 0.00 0.00 0.00 63 1011.3
20260509002850 56 149 0.0 0.0 0.00 0.00 0.00 63 1011.2
20260509002346 56 153 0.0 1.0 0.00 0.00 0.00 63 1011.1
20260509001842 57 149 0.0 2.0 0.00 0.00 0.00 62 1011.1
20260509001340 57 149 1.0 2.0 0.00 0.00 0.00 61 1010.9
20260509000837 58 20 0.0 1.0 0.00 0.00 0.00 60 1011.0
20260509000355 58 19 0.0 1.0 0.00 0.00 0.00 58 1011.0
20260508235847 58 19 0.0 1.0 0.00 0.00 0.00 58 1010.7
20260508235343 59 19 0.0 2.0 0.00 0.00 0.00 57 1010.7
20260508234840 59 20 0.0 4.0 0.00 0.00 0.00 56 1010.6
20260508234416 59 29 0.0 4.0 0.00 0.00 0.00 56 1010.6
20260508233850 60 8 0.0 2.0 0.00 0.00 0.00 55 1010.5
20260508233347 60 41 0.0 5.0 0.00 0.00 0.00 55 1010.5
20260508232841 60 272 1.0 6.0 0.00 0.00 0.00 54 1010.5
20260508232340 60 283 2.0 6.0 0.00 0.00 0.00 53 1010.4
20260508231837 60 250 0.0 3.0 0.00 0.00 0.00 53 1010.5
20260508231337 60 271 0.0 3.0 0.00 0.00 0.00 53 1010.5
20260508230854 60 276 0.0 4.0 0.00 0.00 0.00 52 1010.5
20260508230352 60 326 2.0 5.0 0.00 0.00 0.00 51 1010.6
20260508225849 61 313 1.0 6.0 0.00 0.00 0.00 51 1010.5
20260508225347 61 234 1.0 8.0 0.00 0.00 0.00 51 1010.5
20260508224902 61 314 2.0 8.0 0.00 0.00 0.00 50 1010.6
20260508224339 61 305 4.0 12.0 0.00 0.00 0.00 50 1010.4
20260508223854 61 297 4.0 12.0 0.00 0.00 0.00 49 1010.4